| time (UTC) | temp F | wind direction | speed knots | gust knots | rain 1hr in | rain 24hr in | rain mn in | humidity % | barometer mb |
| 20260503193029 | 77 | 240 | 3.5 | 7.0 | 0.00 | 0.00 | 0.00 | 50 | 1013.0 |
| 20260503192017 | 76 | 241 | 2.6 | 5.2 | 0.00 | 0.00 | 0.00 | 52 | 1013.2 |
| 20260503191027 | 76 | 216 | 1.7 | 3.5 | 0.00 | 0.00 | 0.00 | 52 | 1013.4 |
| 20260503190030 | 75 | 255 | 1.7 | 3.5 | 0.00 | 0.00 | 0.00 | 54 | 1013.4 |
| 20260503185052 | 74 | 254 | 1.7 | 4.3 | 0.00 | 0.00 | 0.00 | 54 | 1013.6 |
| 20260503184018 | 73 | 226 | 2.6 | 5.2 | 0.00 | 0.00 | 0.00 | 55 | 1013.7 |
| 20260503183022 | 73 | 271 | 2.6 | 4.3 | 0.00 | 0.00 | 0.00 | 56 | 1013.7 |
| 20260503182024 | 72 | 270 | 1.7 | 2.6 | 0.00 | 0.00 | 0.00 | 59 | 1013.9 |
| 20260503181027 | 71 | 276 | 2.6 | 3.5 | 0.00 | 0.00 | 0.00 | 59 | 1013.9 |
| 20260503180024 | 72 | 210 | 0.9 | 2.6 | 0.00 | 0.00 | 0.00 | 60 | 1014.0 |
| 20260503175028 | 71 | 68 | 2.6 | 3.5 | 0.00 | 0.00 | 0.00 | 60 | 1014.0 |
| 20260503174033 | 71 | 203 | 1.7 | 2.6 | 0.00 | 0.00 | 0.00 | 62 | 1014.1 |
| 20260503173017 | 70 | 70 | 1.7 | 2.6 | 0.00 | 0.00 | 0.00 | 63 | 1014.2 |
| 20260503172020 | 68 | 235 | 1.7 | 3.5 | 0.00 | 0.00 | 0.00 | 65 | 1014.2 |
| 20260503171023 | 67 | 352 | 1.7 | 3.5 | 0.00 | 0.00 | 0.00 | 67 | 1014.2 |
| 20260503131032 | 53 | 0.0 | 0.0 | 0.00 | 0.00 | 0.00 | 98 | 1014.2 | |
| 20260503081016 | 59 | 130 | 1.7 | 2.6 | 0.00 | 0.00 | 0.00 | 78 | 1014.7 |
| 20260503072026 | 61 | 118 | 2.6 | 3.5 | 0.00 | 0.00 | 0.00 | 69 | 1014.7 |
| 20260503071024 | 61 | 110 | 2.6 | 2.6 | 0.00 | 0.00 | 0.00 | 70 | 1014.7 |
| 20260503055026 | 63 | 123 | 1.7 | 2.6 | 0.00 | 0.00 | 0.00 | 65 | 1014.4 |
| 20260503054030 | 63 | 117 | 1.7 | 2.6 | 0.00 | 0.00 | 0.00 | 66 | 1014.4 |
| 20260503053016 | 63 | 113 | 1.7 | 2.6 | 0.00 | 0.00 | 0.00 | 67 | 1014.4 |
| 20260503052039 | 63 | 105 | 0.9 | 1.7 | 0.00 | 0.00 | 0.00 | 66 | 1014.2 |
| 20260503051046 | 63 | 116 | 2.6 | 2.6 | 0.00 | 0.00 | 0.00 | 66 | 1014.2 |
| 20260503050025 | 64 | 0.0 | 0.0 | 0.00 | 0.00 | 0.00 | 64 | 1014.2 | |
| 20260503045021 | 64 | 113 | 0.9 | 1.7 | 0.00 | 0.00 | 0.00 | 63 | 1014.1 |
| 20260503044019 | 65 | 148 | 0.0 | 1.7 | 0.00 | 0.00 | 0.00 | 61 | 1014.0 |
| 20260503043017 | 66 | 238 | 0.0 | 1.7 | 0.00 | 0.00 | 0.00 | 59 | 1014.0 |
| 20260503042027 | 66 | 225 | 0.9 | 1.7 | 0.00 | 0.00 | 0.00 | 59 | 1013.9 |
| 20260503041030 | 66 | 277 | 0.9 | 1.7 | 0.00 | 0.00 | 0.00 | 58 | 1013.7 |
| 20260503040015 | 67 | 200 | 1.7 | 2.6 | 0.00 | 0.00 | 0.00 | 57 | 1013.5 |
| 20260503035018 | 67 | 277 | 0.9 | 1.7 | 0.00 | 0.00 | 0.00 | 56 | 1013.4 |
| 20260503034022 | 68 | 251 | 1.7 | 4.3 | 0.00 | 0.00 | 0.00 | 56 | 1013.3 |
| 20260503033024 | 69 | 227 | 1.7 | 3.5 | 0.00 | 0.00 | 0.00 | 55 | 1013.2 |
| 20260503032027 | 70 | 234 | 2.6 | 3.5 | 0.00 | 0.00 | 0.00 | 53 | 1013.0 |
| 20260503031030 | 71 | 262 | 2.6 | 3.5 | 0.00 | 0.00 | 0.00 | 52 | 1012.8 |
| 20260503030036 | 73 | 222 | 2.6 | 4.3 | 0.00 | 0.00 | 0.00 | 50 | 1012.8 |
| 20260503025020 | 74 | 234 | 2.6 | 3.5 | 0.00 | 0.00 | 0.00 | 48 | 1012.8 |
| 20260503024018 | 75 | 258 | 1.7 | 2.6 | 0.00 | 0.00 | 0.00 | 47 | 1012.7 |
| 20260503023020 | 76 | 292 | 2.6 | 4.3 | 0.00 | 0.00 | 0.00 | 46 | 1012.7 |
| 20260503022023 | 76 | 249 | 3.5 | 4.3 | 0.00 | 0.00 | 0.00 | 46 | 1012.7 |
| 20260503021046 | 77 | 239 | 3.5 | 4.3 | 0.00 | 0.00 | 0.00 | 45 | 1012.7 |
| 20260503020029 | 78 | 230 | 3.5 | 5.2 | 0.00 | 0.00 | 0.00 | 44 | 1012.7 |
| 20260503015033 | 78 | 292 | 2.6 | 4.3 | 0.00 | 0.00 | 0.00 | 45 | 1012.7 |
| 20260503014018 | 78 | 297 | 2.6 | 4.3 | 0.00 | 0.00 | 0.00 | 45 | 1012.7 |
| 20260503013021 | 78 | 267 | 2.6 | 4.3 | 0.00 | 0.00 | 0.00 | 46 | 1012.7 |
| 20260503012026 | 78 | 256 | 3.5 | 6.1 | 0.00 | 0.00 | 0.00 | 44 | 1012.8 |
| 20260503011023 | 78 | 200 | 2.6 | 5.2 | 0.00 | 0.00 | 0.00 | 45 | 1012.8 |
| 20260503010019 | 77 | 268 | 3.5 | 5.2 | 0.00 | 0.00 | 0.00 | 46 | 1012.9 |
| 20260503005058 | 76 | 259 | 4.3 | 6.1 | 0.00 | 0.00 | 0.00 | 46 | 1013.0 |
| 20260503004032 | 76 | 240 | 4.3 | 7.0 | 0.00 | 0.00 | 0.00 | 45 | 1013.0 |
| 20260503003017 | 76 | 312 | 3.5 | 5.2 | 0.00 | 0.00 | 0.00 | 45 | 1013.0 |
| 20260503002053 | 77 | 238 | 4.3 | 6.1 | 0.00 | 0.00 | 0.00 | 45 | 1013.2 |
| 20260503001018 | 76 | 249 | 3.5 | 6.1 | 0.00 | 0.00 | 0.00 | 46 | 1013.2 |
| 20260503000026 | 76 | 252 | 2.6 | 5.2 | 0.00 | 0.00 | 0.00 | 47 | 1013.2 |
| 20260502235024 | 76 | 338 | 3.5 | 6.1 | 0.00 | 0.00 | 0.00 | 48 | 1013.3 |
| 20260502234047 | 76 | 338 | 4.3 | 7.0 | 0.00 | 0.00 | 0.00 | 49 | 1013.4 |
| 20260502233031 | 76 | 229 | 4.3 | 5.2 | 0.00 | 0.00 | 0.00 | 50 | 1013.7 |
| 20260502232016 | 75 | 229 | 4.3 | 7.0 | 0.00 | 0.00 | 0.00 | 51 | 1013.9 |
| 20260502231053 | 75 | 220 | 4.3 | 7.0 | 0.00 | 0.00 | 0.00 | 51 | 1014.0 |
| 20260502230017 | 76 | 305 | 2.6 | 5.2 | 0.00 | 0.00 | 0.00 | 51 | 1014.1 |
| 20260502225021 | 77 | 292 | 3.5 | 5.2 | 0.00 | 0.00 | 0.00 | 52 | 1014.3 |
| 20260502224027 | 75 | 248 | 2.6 | 5.2 | 0.00 | 0.00 | 0.00 | 53 | 1014.4 |
| 20260502223027 | 75 | 337 | 4.3 | 5.2 | 0.00 | 0.00 | 0.00 | 53 | 1014.4 |
| 20260502222024 | 76 | 263 | 3.5 | 7.8 | 0.00 | 0.00 | 0.00 | 54 | 1014.4 |
| 20260502221027 | 75 | 319 | 2.6 | 4.3 | 0.00 | 0.00 | 0.00 | 54 | 1014.7 |
| 20260502220030 | 75 | 205 | 2.6 | 5.2 | 0.00 | 0.00 | 0.00 | 55 | 1014.7 |
| 20260502215026 | 73 | 266 | 4.3 | 7.0 | 0.00 | 0.00 | 0.00 | 56 | 1014.8 |
| 20260502214018 | 74 | 348 | 3.5 | 6.1 | 0.00 | 0.00 | 0.00 | 56 | 1014.9 |
| 20260502213020 | 73 | 341 | 2.6 | 4.3 | 0.00 | 0.00 | 0.00 | 55 | 1014.9 |
| 20260502212017 | 74 | 91 | 1.7 | 3.5 | 0.00 | 0.00 | 0.00 | 55 | 1015.2 |
| 20260502211046 | 73 | 3 | 2.6 | 5.2 | 0.00 | 0.00 | 0.00 | 54 | 1015.4 |
| 20260502210030 | 72 | 306 | 2.6 | 4.3 | 0.00 | 0.00 | 0.00 | 57 | 1015.4 |
| 20260502205018 | 73 | 349 | 2.6 | 4.3 | 0.00 | 0.00 | 0.00 | 55 | 1015.4 |
| 20260502204028 | 72 | 346 | 3.5 | 5.2 | 0.00 | 0.00 | 0.00 | 58 | 1015.4 |
| 20260502203027 | 71 | 277 | 2.6 | 6.1 | 0.00 | 0.00 | 0.00 | 58 | 1015.4 |
| 20260502202027 | 71 | 353 | 2.6 | 4.3 | 0.00 | 0.00 | 0.00 | 58 | 1015.6 |
| 20260502201049 | 71 | 342 | 1.7 | 5.2 | 0.00 | 0.00 | 0.00 | 60 | 1015.7 |
| 20260502200032 | 69 | 243 | 2.6 | 4.3 | 0.00 | 0.00 | 0.00 | 61 | 1015.9 |
| 20260502195057 | 68 | 249 | 2.6 | 4.3 | 0.00 | 0.00 | 0.00 | 63 | 1016.0 |
| 20260502194040 | 70 | 188 | 0.9 | 2.6 | 0.00 | 0.00 | 0.00 | 63 | 1016.1 |